Year,Month,Day,Hour,Minute,Value (Times are PST for temperature in C)
2006,08,22,00,00,16.30
2006,08,22,00,01,16.30
2006,08,22,00,02,16.20
2006,08,22,00,03,16.20
2006,08,22,00,04,16.20
2006,08,22,00,05,16.10
2006,08,22,00,06,16.10
2006,08,22,00,07,16.10
2006,08,22,00,08,16.10
2006,08,22,00,09,16.10
2006,08,22,00,10,16.10
2006,08,22,00,11,16.10
2006,08,22,00,12,16.10
2006,08,22,00,13,16.00
2006,08,22,00,14,15.90
2006,08,22,00,15,15.90
2006,08,22,00,16,15.90
2006,08,22,00,17,15.80
2006,08,22,00,18,15.80
2006,08,22,00,19,15.70
2006,08,22,00,20,15.60
2006,08,22,00,21,15.60
2006,08,22,00,22,15.50
2006,08,22,00,23,15.40
2006,08,22,00,24,15.40
2006,08,22,00,25,15.30
2006,08,22,00,26,15.30
2006,08,22,00,27,15.30
2006,08,22,00,28,15.30
2006,08,22,00,29,15.30
2006,08,22,00,30,15.30
2006,08,22,00,31,15.20
2006,08,22,00,32,15.20
2006,08,22,00,33,15.20
2006,08,22,00,34,15.20
2006,08,22,00,35,15.20
2006,08,22,00,36,15.20
2006,08,22,00,37,15.20
2006,08,22,00,38,15.30
2006,08,22,00,39,15.30
2006,08,22,00,40,15.30
2006,08,22,00,41,15.30
2006,08,22,00,42,15.30
2006,08,22,00,43,15.30
2006,08,22,00,44,15.30
2006,08,22,00,45,15.40
2006,08,22,00,46,15.40
2006,08,22,00,47,15.40
2006,08,22,00,48,15.40
2006,08,22,00,49,15.50
2006,08,22,00,50,15.50
2006,08,22,00,51,15.50
2006,08,22,00,52,15.50
2006,08,22,00,53,15.50
2006,08,22,00,54,15.50
2006,08,22,00,55,15.50
2006,08,22,00,56,15.60
2006,08,22,00,57,15.50
2006,08,22,00,58,15.50
2006,08,22,00,59,15.40
2006,08,22,01,00,15.40
2006,08,22,01,01,15.30
2006,08,22,01,02,15.30
2006,08,22,01,03,15.30
2006,08,22,01,04,15.30
2006,08,22,01,05,15.20
2006,08,22,01,06,15.20
2006,08,22,01,07,15.20
2006,08,22,01,08,15.10
2006,08,22,01,09,15.10
2006,08,22,01,10,15.10
2006,08,22,01,11,15.00
2006,08,22,01,12,15.00
2006,08,22,01,13,15.00
2006,08,22,01,14,14.90
2006,08,22,01,15,14.90
2006,08,22,01,16,14.90
2006,08,22,01,17,14.90
2006,08,22,01,18,14.80
2006,08,22,01,19,14.80
2006,08,22,01,20,14.80
2006,08,22,01,21,14.80
2006,08,22,01,22,14.80
2006,08,22,01,23,14.80
2006,08,22,01,24,14.80
2006,08,22,01,25,14.70
2006,08,22,01,26,14.70
2006,08,22,01,27,14.70
2006,08,22,01,28,14.70
2006,08,22,01,29,14.70
2006,08,22,01,30,14.70
2006,08,22,01,31,14.70
2006,08,22,01,32,14.60
2006,08,22,01,33,14.60
2006,08,22,01,34,14.60
2006,08,22,01,35,14.60
2006,08,22,01,36,14.60
2006,08,22,01,37,14.60
2006,08,22,01,38,14.50
2006,08,22,01,39,14.50
2006,08,22,01,40,14.50
2006,08,22,01,41,14.50
2006,08,22,01,42,14.40
2006,08,22,01,43,14.40
2006,08,22,01,44,14.40
2006,08,22,01,45,14.40
2006,08,22,01,46,14.40
2006,08,22,01,47,14.30
2006,08,22,01,48,14.30
2006,08,22,01,49,14.30
2006,08,22,01,50,14.30
2006,08,22,01,51,14.20
2006,08,22,01,52,14.20
2006,08,22,01,53,14.20
2006,08,22,01,54,14.20
2006,08,22,01,55,14.20
2006,08,22,01,56,14.20
2006,08,22,01,57,14.20
2006,08,22,01,58,14.20
2006,08,22,01,59,14.20
2006,08,22,02,00,14.20
2006,08,22,02,01,14.20
2006,08,22,02,02,14.20
2006,08,22,02,03,14.20
2006,08,22,02,04,14.20
2006,08,22,02,05,14.20
2006,08,22,02,06,14.20
2006,08,22,02,07,14.20
2006,08,22,02,08,14.20
2006,08,22,02,09,14.20
2006,08,22,02,10,14.20
2006,08,22,02,11,14.20
2006,08,22,02,12,14.20
2006,08,22,02,13,14.20
2006,08,22,02,14,14.20
2006,08,22,02,15,14.10
2006,08,22,02,16,14.10
2006,08,22,02,17,14.10
2006,08,22,02,18,14.10
2006,08,22,02,19,14.10
2006,08,22,02,20,14.10
2006,08,22,02,21,14.10
2006,08,22,02,22,14.20
2006,08,22,02,23,14.20
2006,08,22,02,24,14.20
2006,08,22,02,25,14.20
2006,08,22,02,26,14.20
2006,08,22,02,27,14.20
2006,08,22,02,28,14.30
2006,08,22,02,29,14.30
2006,08,22,02,30,14.40
2006,08,22,02,31,14.40
2006,08,22,02,32,14.40
2006,08,22,02,33,14.40
2006,08,22,02,34,14.40
2006,08,22,02,35,14.40
2006,08,22,02,36,14.40
2006,08,22,02,37,14.40
2006,08,22,02,38,14.20
2006,08,22,02,39,14.20
2006,08,22,02,40,14.10
2006,08,22,02,41,14.10
2006,08,22,02,42,14.00
2006,08,22,02,43,14.00
2006,08,22,02,44,13.90
2006,08,22,02,45,13.90
2006,08,22,02,46,13.90
2006,08,22,02,47,13.80
2006,08,22,02,48,13.80
2006,08,22,02,49,13.70
2006,08,22,02,50,13.70
2006,08,22,02,51,13.70
2006,08,22,02,52,13.70
2006,08,22,02,53,13.70
2006,08,22,02,54,13.70
2006,08,22,02,55,13.70
2006,08,22,02,56,13.60
2006,08,22,02,57,13.60
2006,08,22,02,58,13.60
2006,08,22,02,59,13.60
2006,08,22,03,00,13.60
2006,08,22,03,01,13.60
2006,08,22,03,02,13.60
2006,08,22,03,03,13.70
2006,08,22,03,04,13.70
2006,08,22,03,05,13.70
2006,08,22,03,06,13.70
2006,08,22,03,07,13.70
2006,08,22,03,08,13.70
2006,08,22,03,09,13.70
2006,08,22,03,10,13.70
2006,08,22,03,11,13.70
2006,08,22,03,12,13.70
2006,08,22,03,13,13.70
2006,08,22,03,14,13.70
2006,08,22,03,15,13.70
2006,08,22,03,16,13.70
2006,08,22,03,17,13.70
2006,08,22,03,18,13.70
2006,08,22,03,19,13.70
2006,08,22,03,20,13.70
2006,08,22,03,21,13.60
2006,08,22,03,22,13.60
2006,08,22,03,23,13.60
2006,08,22,03,24,13.50
2006,08,22,03,25,13.50
2006,08,22,03,26,13.40
2006,08,22,03,27,13.40
2006,08,22,03,28,13.40
2006,08,22,03,29,13.30
2006,08,22,03,30,13.30
2006,08,22,03,31,13.30
2006,08,22,03,32,13.30
2006,08,22,03,33,13.30
2006,08,22,03,34,13.30
2006,08,22,03,35,13.30
2006,08,22,03,36,13.30
2006,08,22,03,37,13.30
2006,08,22,03,38,13.30
2006,08,22,03,39,13.30
2006,08,22,03,40,13.30
2006,08,22,03,41,13.30
2006,08,22,03,42,13.30
2006,08,22,03,43,13.30
2006,08,22,03,44,13.30
2006,08,22,03,45,13.30
2006,08,22,03,46,13.30
2006,08,22,03,47,13.30
2006,08,22,03,48,13.30
2006,08,22,03,49,13.30
2006,08,22,03,50,13.30
2006,08,22,03,51,13.30
2006,08,22,03,52,13.30
2006,08,22,03,53,13.30
2006,08,22,03,54,13.30
2006,08,22,03,55,13.20
2006,08,22,03,56,13.20
2006,08,22,03,57,13.20
2006,08,22,03,58,13.10
2006,08,22,03,59,13.10
2006,08,22,04,00,13.10
2006,08,22,04,01,13.10
2006,08,22,04,02,13.10
2006,08,22,04,03,13.10
2006,08,22,04,04,13.10
2006,08,22,04,05,13.10
2006,08,22,04,06,13.10
2006,08,22,04,07,13.10
2006,08,22,04,08,13.10
2006,08,22,04,09,13.10
2006,08,22,04,10,13.00
2006,08,22,04,11,13.00
2006,08,22,04,12,13.00
2006,08,22,04,13,13.00
2006,08,22,04,14,12.90
2006,08,22,04,15,12.80
2006,08,22,04,16,12.80
2006,08,22,04,17,12.80
2006,08,22,04,18,12.70
2006,08,22,04,19,12.70
2006,08,22,04,20,12.60
2006,08,22,04,21,12.60
2006,08,22,04,22,12.60
2006,08,22,04,23,12.60
2006,08,22,04,24,12.50
2006,08,22,04,25,12.50
2006,08,22,04,26,12.50
2006,08,22,04,27,12.40
2006,08,22,04,28,12.40
2006,08,22,04,29,12.40
2006,08,22,04,30,12.40
2006,08,22,04,31,12.50
2006,08,22,04,32,12.50
2006,08,22,04,33,12.60
2006,08,22,04,34,12.60
2006,08,22,04,35,12.60
2006,08,22,04,36,12.70
2006,08,22,04,37,12.70
2006,08,22,04,38,12.70
2006,08,22,04,39,12.70
2006,08,22,04,40,12.70
2006,08,22,04,41,12.70
2006,08,22,04,42,12.70
2006,08,22,04,43,12.70
2006,08,22,04,44,12.60
2006,08,22,04,45,12.60
2006,08,22,04,46,12.60
2006,08,22,04,47,12.60
2006,08,22,04,48,12.60
2006,08,22,04,49,12.60
2006,08,22,04,50,12.60
2006,08,22,04,51,12.60
2006,08,22,04,52,12.60
2006,08,22,04,53,12.60
2006,08,22,04,54,12.60
2006,08,22,04,55,12.50
2006,08,22,04,56,12.50
2006,08,22,04,57,12.50
2006,08,22,04,58,12.50
2006,08,22,04,59,12.60
2006,08,22,05,00,12.50
2006,08,22,05,01,12.50
2006,08,22,05,02,12.40
2006,08,22,05,03,12.40
2006,08,22,05,04,12.30
2006,08,22,05,05,12.30
2006,08,22,05,06,12.30
2006,08,22,05,07,12.30
2006,08,22,05,08,12.30
2006,08,22,05,09,12.30
2006,08,22,05,10,12.30
2006,08,22,05,11,12.30
2006,08,22,05,12,12.30
2006,08,22,05,13,12.20
2006,08,22,05,14,12.20
2006,08,22,05,15,12.20
2006,08,22,05,16,12.10
2006,08,22,05,17,12.10
2006,08,22,05,18,12.00
2006,08,22,05,19,12.00
2006,08,22,05,20,11.90
2006,08,22,05,21,11.90
2006,08,22,05,22,11.90
2006,08,22,05,23,11.80
2006,08,22,05,24,11.80
2006,08,22,05,25,11.80
2006,08,22,05,26,11.80
2006,08,22,05,27,11.80
2006,08,22,05,28,11.80
2006,08,22,05,29,11.80
2006,08,22,05,30,11.80
2006,08,22,05,31,11.70
2006,08,22,05,32,11.70
2006,08,22,05,33,11.70
2006,08,22,05,34,11.70
2006,08,22,05,35,11.70
2006,08,22,05,36,11.60
2006,08,22,05,37,11.60
2006,08,22,05,38,11.60
2006,08,22,05,39,11.60
2006,08,22,05,40,11.60
2006,08,22,05,41,11.60
2006,08,22,05,42,11.60
2006,08,22,05,43,11.60
2006,08,22,05,44,11.60
2006,08,22,05,45,11.40
2006,08,22,05,46,11.50
2006,08,22,05,47,11.60
2006,08,22,05,48,11.60
2006,08,22,05,49,11.60
2006,08,22,05,50,11.60
2006,08,22,05,51,11.60
2006,08,22,05,52,11.60
2006,08,22,05,53,11.60
2006,08,22,05,54,11.60
2006,08,22,05,55,11.60
2006,08,22,05,56,11.60
2006,08,22,05,57,11.60
2006,08,22,05,58,11.60
2006,08,22,05,59,11.70
2006,08,22,06,00,11.70
2006,08,22,06,01,11.70
2006,08,22,06,02,11.70
2006,08,22,06,03,11.70
2006,08,22,06,04,11.60
2006,08,22,06,05,11.60
2006,08,22,06,06,11.60
2006,08,22,06,07,11.40
2006,08,22,06,08,11.40
2006,08,22,06,09,11.40
2006,08,22,06,10,11.40
2006,08,22,06,11,11.30
2006,08,22,06,12,11.30
2006,08,22,06,13,11.30
2006,08,22,06,14,11.30
2006,08,22,06,15,11.30
2006,08,22,06,16,11.30
2006,08,22,06,17,11.40
2006,08,22,06,18,11.40
2006,08,22,06,19,11.40
2006,08,22,06,20,11.40
2006,08,22,06,21,11.40
2006,08,22,06,22,11.30
2006,08,22,06,23,11.20
2006,08,22,06,24,11.20
2006,08,22,06,25,11.10
2006,08,22,06,26,11.10
2006,08,22,06,27,11.10
2006,08,22,06,28,11.00
2006,08,22,06,29,10.90
2006,08,22,06,30,10.90
2006,08,22,06,31,10.90
2006,08,22,06,32,10.90
2006,08,22,06,33,10.90
2006,08,22,06,34,10.90
2006,08,22,06,35,10.90
2006,08,22,06,36,10.90
2006,08,22,06,37,10.90
2006,08,22,06,38,10.90
2006,08,22,06,39,10.90
2006,08,22,06,40,10.90
2006,08,22,06,41,10.90
2006,08,22,06,42,10.90
2006,08,22,06,43,10.90
2006,08,22,06,44,10.90
2006,08,22,06,45,10.90
2006,08,22,06,46,10.90
2006,08,22,06,47,10.90
2006,08,22,06,48,10.90
2006,08,22,06,49,10.90
2006,08,22,06,50,10.90
2006,08,22,06,51,10.90
2006,08,22,06,52,10.90
2006,08,22,06,53,10.90
2006,08,22,06,54,10.90
2006,08,22,06,55,10.90
2006,08,22,06,56,10.90
2006,08,22,06,57,10.90
2006,08,22,06,58,10.90
2006,08,22,06,59,10.90
2006,08,22,07,00,10.90
2006,08,22,07,01,10.90
2006,08,22,07,02,10.90
2006,08,22,07,03,10.90
2006,08,22,07,04,10.90
2006,08,22,07,05,10.90
2006,08,22,07,06,10.90
2006,08,22,07,07,10.90
2006,08,22,07,08,10.90
2006,08,22,07,09,11.10
2006,08,22,07,10,11.10
2006,08,22,07,11,11.10
2006,08,22,07,12,11.10
2006,08,22,07,13,11.10
2006,08,22,07,14,11.10
2006,08,22,07,15,11.20
2006,08,22,07,16,11.20
2006,08,22,07,17,11.20
2006,08,22,07,18,11.30
2006,08,22,07,19,11.30
2006,08,22,07,20,11.40
2006,08,22,07,21,11.40
2006,08,22,07,22,11.40
2006,08,22,07,23,11.40
2006,08,22,07,24,11.40
2006,08,22,07,25,11.40
2006,08,22,07,26,11.40
2006,08,22,07,27,11.40
2006,08,22,07,28,11.30
2006,08,22,07,29,11.30
2006,08,22,07,30,11.30
2006,08,22,07,31,11.30
2006,08,22,07,32,11.30
2006,08,22,07,33,11.40
2006,08,22,07,34,11.40
2006,08,22,07,35,11.40
2006,08,22,07,36,11.40
2006,08,22,07,37,11.40
2006,08,22,07,38,11.50
2006,08,22,07,39,11.60
2006,08,22,07,40,11.60
2006,08,22,07,41,11.70
2006,08,22,07,42,11.80
2006,08,22,07,43,11.80
2006,08,22,07,44,11.80
2006,08,22,07,45,11.90
2006,08,22,07,46,12.00
2006,08,22,07,47,12.00
2006,08,22,07,48,12.20
2006,08,22,07,49,12.30
2006,08,22,07,50,12.50
2006,08,22,07,51,12.60
2006,08,22,07,52,12.80
2006,08,22,07,53,12.90
2006,08,22,07,54,12.90
2006,08,22,07,55,12.90
2006,08,22,07,56,13.00
2006,08,22,07,57,13.00
2006,08,22,07,58,13.10
2006,08,22,07,59,13.10
2006,08,22,08,00,13.20
2006,08,22,08,01,13.30
2006,08,22,08,02,13.30
2006,08,22,08,03,13.30
2006,08,22,08,04,13.30
2006,08,22,08,05,13.30
2006,08,22,08,06,13.40
2006,08,22,08,07,13.50
2006,08,22,08,08,13.50
2006,08,22,08,09,13.60
2006,08,22,08,10,13.60
2006,08,22,08,11,13.60
2006,08,22,08,12,13.70
2006,08,22,08,13,13.70
2006,08,22,08,14,13.70
2006,08,22,08,15,13.70
2006,08,22,08,16,13.70
2006,08,22,08,17,13.80
2006,08,22,08,18,13.80
2006,08,22,08,19,13.80
2006,08,22,08,20,13.90
2006,08,22,08,21,13.90
2006,08,22,08,22,13.90
2006,08,22,08,23,14.00
2006,08,22,08,24,14.10
2006,08,22,08,25,14.10
2006,08,22,08,26,14.20
2006,08,22,08,27,14.10
2006,08,22,08,28,14.20
2006,08,22,08,29,14.20
2006,08,22,08,30,14.20
2006,08,22,08,31,14.20
2006,08,22,08,32,14.20
2006,08,22,08,33,14.20
2006,08,22,08,34,14.30
2006,08,22,08,35,14.30
2006,08,22,08,36,14.40
2006,08,22,08,37,14.40
2006,08,22,08,38,14.50
2006,08,22,08,39,14.60
2006,08,22,08,40,14.60
2006,08,22,08,41,14.70
2006,08,22,08,42,14.80
2006,08,22,08,43,14.80
2006,08,22,08,44,14.90
2006,08,22,08,45,14.90
2006,08,22,08,46,15.00
2006,08,22,08,47,15.00
2006,08,22,08,48,15.00
2006,08,22,08,49,15.10
2006,08,22,08,50,15.10
2006,08,22,08,51,15.00
2006,08,22,08,52,14.90
2006,08,22,08,53,14.80
2006,08,22,08,54,14.80
2006,08,22,08,55,14.70
2006,08,22,08,56,14.60
2006,08,22,08,57,14.50
2006,08,22,08,58,14.40
2006,08,22,08,59,14.20
2006,08,22,09,00,14.20
2006,08,22,09,01,14.20
2006,08,22,09,02,14.10
2006,08,22,09,03,14.00
2006,08,22,09,04,13.90
2006,08,22,09,05,13.90
2006,08,22,09,06,13.80
2006,08,22,09,07,13.80
2006,08,22,09,08,13.80
2006,08,22,09,09,13.80
2006,08,22,09,10,13.80
2006,08,22,09,11,13.90
2006,08,22,09,12,14.00
2006,08,22,09,13,14.00
2006,08,22,09,14,14.00
2006,08,22,09,15,14.00
2006,08,22,09,16,13.90
2006,08,22,09,17,13.80
2006,08,22,09,18,13.70
2006,08,22,09,19,13.70
2006,08,22,09,20,13.70
2006,08,22,09,21,13.60
2006,08,22,09,22,13.50
2006,08,22,09,23,13.50
2006,08,22,09,24,13.50
2006,08,22,09,25,13.50
2006,08,22,09,26,13.60
2006,08,22,09,27,13.60
2006,08,22,09,28,13.60
2006,08,22,09,29,13.60
2006,08,22,09,30,13.70
2006,08,22,09,31,13.60
2006,08,22,09,32,13.60
2006,08,22,09,33,13.60
2006,08,22,09,34,13.60
2006,08,22,09,35,13.60
2006,08,22,09,36,13.60
2006,08,22,09,37,13.60
2006,08,22,09,38,13.70
2006,08,22,09,39,13.70
2006,08,22,09,40,13.70
2006,08,22,09,41,13.70
2006,08,22,09,42,13.70
2006,08,22,09,43,13.70
2006,08,22,09,44,13.70
2006,08,22,09,45,13.60
2006,08,22,09,46,13.60
2006,08,22,09,47,13.60
2006,08,22,09,48,13.50
2006,08,22,09,49,13.50
2006,08,22,09,50,13.50
2006,08,22,09,51,13.40
2006,08,22,09,52,13.30
2006,08,22,09,53,13.30
2006,08,22,09,54,13.30
2006,08,22,09,55,13.30
2006,08,22,09,56,13.30
2006,08,22,09,57,13.30
2006,08,22,09,58,13.30
2006,08,22,09,59,13.40
2006,08,22,10,00,13.40
2006,08,22,10,01,13.40
2006,08,22,10,02,13.50
2006,08,22,10,03,13.40
2006,08,22,10,04,13.50
2006,08,22,10,05,13.50
2006,08,22,10,06,13.50
2006,08,22,10,07,13.50
2006,08,22,10,08,13.50
2006,08,22,10,09,13.60
2006,08,22,10,10,13.70
2006,08,22,10,11,13.70
2006,08,22,10,12,13.70
2006,08,22,10,13,13.80
2006,08,22,10,14,13.80
2006,08,22,10,15,13.90
2006,08,22,10,16,13.90
2006,08,22,10,17,13.90
2006,08,22,10,18,13.90
2006,08,22,10,19,14.00
2006,08,22,10,20,14.00
2006,08,22,10,21,14.10
2006,08,22,10,22,14.10
2006,08,22,10,23,14.10
2006,08,22,10,24,14.10
2006,08,22,10,25,14.10
2006,08,22,10,26,14.20
2006,08,22,10,27,14.30
2006,08,22,10,28,14.30
2006,08,22,10,29,14.50
2006,08,22,10,30,14.40
2006,08,22,10,31,14.40
2006,08,22,10,32,14.40
2006,08,22,10,33,14.30
2006,08,22,10,34,14.20
2006,08,22,10,35,14.20
2006,08,22,10,36,14.30
2006,08,22,10,37,14.30
2006,08,22,10,38,14.40
2006,08,22,10,39,14.40
2006,08,22,10,40,14.40
2006,08,22,10,41,14.50
2006,08,22,10,42,14.50
2006,08,22,10,43,14.60
2006,08,22,10,44,14.60
2006,08,22,10,45,14.60
2006,08,22,10,46,14.60
2006,08,22,10,47,14.70
2006,08,22,10,48,14.80
2006,08,22,10,49,14.80
2006,08,22,10,50,14.80
2006,08,22,10,51,14.80
2006,08,22,10,52,14.90
2006,08,22,10,53,15.00
2006,08,22,10,54,15.00
2006,08,22,10,55,15.10
2006,08,22,10,56,15.10
2006,08,22,10,57,15.20
2006,08,22,10,58,15.10
2006,08,22,10,59,15.10
2006,08,22,11,00,15.10
2006,08,22,11,01,15.20
2006,08,22,11,02,15.20
2006,08,22,11,03,15.20
2006,08,22,11,04,15.20
2006,08,22,11,05,15.30
2006,08,22,11,06,15.30
2006,08,22,11,07,15.20
2006,08,22,11,08,15.20
2006,08,22,11,09,15.20
2006,08,22,11,10,15.20
2006,08,22,11,11,15.20
2006,08,22,11,12,15.20
2006,08,22,11,13,15.40
2006,08,22,11,14,15.50
2006,08,22,11,15,15.50
2006,08,22,11,16,15.60
2006,08,22,11,17,15.60
2006,08,22,11,18,15.70
2006,08,22,11,19,15.80
2006,08,22,11,20,15.80
2006,08,22,11,21,15.80
2006,08,22,11,22,15.80
2006,08,22,11,23,15.80
2006,08,22,11,24,15.80
2006,08,22,11,25,15.80
2006,08,22,11,26,16.00
2006,08,22,11,27,16.10
2006,08,22,11,28,16.20
2006,08,22,11,29,16.20
2006,08,22,11,30,16.30
2006,08,22,11,31,16.30
2006,08,22,11,32,16.40
2006,08,22,11,33,16.40
2006,08,22,11,34,16.40
2006,08,22,11,35,16.40
2006,08,22,11,36,16.30
2006,08,22,11,37,16.30
2006,08,22,11,38,16.20
2006,08,22,11,39,16.20
2006,08,22,11,40,16.10
2006,08,22,11,41,16.10
2006,08,22,11,42,16.10
2006,08,22,11,43,16.20
2006,08,22,11,44,16.20
2006,08,22,11,45,16.30
2006,08,22,11,46,16.40
2006,08,22,11,47,16.40
2006,08,22,11,48,16.30
2006,08,22,11,49,16.30
2006,08,22,11,50,16.30
2006,08,22,11,51,16.30
2006,08,22,11,52,16.40
2006,08,22,11,53,16.50
2006,08,22,11,54,16.70
2006,08,22,11,55,16.70
2006,08,22,11,56,16.70
2006,08,22,11,57,16.50
2006,08,22,11,58,16.40
2006,08,22,11,59,16.40
2006,08,22,12,00,16.30
2006,08,22,12,01,16.30
2006,08,22,12,02,16.20
2006,08,22,12,03,16.20
2006,08,22,12,04,16.20
2006,08,22,12,05,16.30
2006,08,22,12,06,16.50
2006,08,22,12,07,16.60
2006,08,22,12,08,16.40
2006,08,22,12,09,16.30
2006,08,22,12,10,16.30
2006,08,22,12,11,16.40
2006,08,22,12,12,16.50
2006,08,22,12,13,16.60
2006,08,22,12,14,16.50
2006,08,22,12,15,16.60
2006,08,22,12,16,16.80
2006,08,22,12,17,16.80
2006,08,22,12,18,16.60
2006,08,22,12,19,16.40
2006,08,22,12,20,16.40
2006,08,22,12,21,16.40
2006,08,22,12,22,16.40
2006,08,22,12,23,16.40
2006,08,22,12,24,16.40
2006,08,22,12,25,16.50
2006,08,22,12,26,16.60
2006,08,22,12,27,16.70
2006,08,22,12,28,16.70
2006,08,22,12,29,16.70
2006,08,22,12,30,16.70
2006,08,22,12,31,16.70
2006,08,22,12,32,16.70
2006,08,22,12,33,16.70
2006,08,22,12,34,16.80
2006,08,22,12,35,16.80
2006,08,22,12,36,16.90
2006,08,22,12,37,17.00
2006,08,22,12,38,17.10
2006,08,22,12,39,17.30
2006,08,22,12,40,17.20
2006,08,22,12,41,17.20
2006,08,22,12,42,17.10
2006,08,22,12,43,17.10
2006,08,22,12,44,17.10
2006,08,22,12,45,17.00
2006,08,22,12,46,16.80
2006,08,22,12,47,16.70
2006,08,22,12,48,16.60
2006,08,22,12,49,16.50
2006,08,22,12,50,16.40
2006,08,22,12,51,16.40
2006,08,22,12,52,16.40
2006,08,22,12,53,16.40
2006,08,22,12,54,16.50
2006,08,22,12,55,16.60
2006,08,22,12,56,16.50
2006,08,22,12,57,16.40
2006,08,22,12,58,16.30
2006,08,22,12,59,16.50
2006,08,22,13,00,16.70
2006,08,22,13,01,16.70
2006,08,22,13,02,16.70
2006,08,22,13,03,16.80
2006,08,22,13,04,16.80
2006,08,22,13,05,16.70
2006,08,22,13,06,16.50
2006,08,22,13,07,16.40
2006,08,22,13,08,16.40
2006,08,22,13,09,16.40
2006,08,22,13,10,16.50
2006,08,22,13,11,16.60
2006,08,22,13,12,16.80
2006,08,22,13,13,17.00
2006,08,22,13,14,17.10
2006,08,22,13,15,17.10
2006,08,22,13,16,17.20
2006,08,22,13,17,17.30
2006,08,22,13,18,17.30
2006,08,22,13,19,17.40
2006,08,22,13,20,17.40
2006,08,22,13,21,17.20
2006,08,22,13,22,17.00
2006,08,22,13,23,16.90
2006,08,22,13,24,16.90
2006,08,22,13,25,16.90
2006,08,22,13,26,17.00
2006,08,22,13,27,17.10
2006,08,22,13,28,17.30
2006,08,22,13,29,17.30
2006,08,22,13,30,17.30
2006,08,22,13,31,17.30
2006,08,22,13,32,17.60
2006,08,22,13,33,17.60
2006,08,22,13,34,17.70
2006,08,22,13,35,17.70
2006,08,22,13,36,17.70
2006,08,22,13,37,17.80
2006,08,22,13,38,17.90
2006,08,22,13,39,17.90
2006,08,22,13,40,17.80
2006,08,22,13,41,17.70
2006,08,22,13,42,17.80
2006,08,22,13,43,17.70
2006,08,22,13,44,17.70
2006,08,22,13,45,17.80
2006,08,22,13,46,17.90
2006,08,22,13,47,17.80
2006,08,22,13,48,17.80
2006,08,22,13,49,17.80
2006,08,22,13,50,17.70
2006,08,22,13,51,17.50
2006,08,22,13,52,17.30
2006,08,22,13,53,17.30
2006,08,22,13,54,17.30
2006,08,22,13,55,17.20
2006,08,22,13,56,17.20
2006,08,22,13,57,17.10
2006,08,22,13,58,17.10
2006,08,22,13,59,17.20
2006,08,22,14,00,17.20
2006,08,22,14,01,17.30
2006,08,22,14,02,17.40
2006,08,22,14,03,17.50
2006,08,22,14,04,17.60
2006,08,22,14,05,17.60
2006,08,22,14,06,17.60
2006,08,22,14,07,17.60
2006,08,22,14,08,17.70
2006,08,22,14,09,17.90
2006,08,22,14,10,17.90
2006,08,22,14,11,18.00
2006,08,22,14,12,18.30
2006,08,22,14,13,18.30
2006,08,22,14,14,18.30
2006,08,22,14,15,18.30
2006,08,22,14,16,18.20
2006,08,22,14,17,18.20
2006,08,22,14,18,18.10
2006,08,22,14,19,18.00
2006,08,22,14,20,17.90
2006,08,22,14,21,17.70
2006,08,22,14,22,17.50
2006,08,22,14,23,17.50
2006,08,22,14,24,17.50
2006,08,22,14,25,17.40
2006,08,22,14,26,17.40
2006,08,22,14,27,17.40
2006,08,22,14,28,17.50
2006,08,22,14,29,17.50
2006,08,22,14,30,17.70
2006,08,22,14,31,17.70
2006,08,22,14,32,17.70
2006,08,22,14,33,17.80
2006,08,22,14,34,17.80
2006,08,22,14,35,17.80
2006,08,22,14,36,17.90
2006,08,22,14,37,18.00
2006,08,22,14,38,18.20
2006,08,22,14,39,18.20
2006,08,22,14,40,18.10
2006,08,22,14,41,17.90
2006,08,22,14,42,17.90
2006,08,22,14,43,17.80
2006,08,22,14,44,17.80
2006,08,22,14,45,17.90
2006,08,22,14,46,17.90
2006,08,22,14,47,17.80
2006,08,22,14,48,17.70
2006,08,22,14,49,17.70
2006,08,22,14,50,17.70
2006,08,22,14,51,17.70
2006,08,22,14,52,17.80
2006,08,22,14,53,17.90
2006,08,22,14,54,17.80
2006,08,22,14,55,17.80
2006,08,22,14,56,17.60
2006,08,22,14,57,17.50
2006,08,22,14,58,17.40
2006,08,22,14,59,17.40
2006,08,22,15,00,17.50
2006,08,22,15,01,17.50
2006,08,22,15,02,17.50
2006,08,22,15,03,17.60
2006,08,22,15,04,17.50
2006,08,22,15,05,17.50
2006,08,22,15,06,17.60
2006,08,22,15,07,17.70
2006,08,22,15,08,17.80
2006,08,22,15,09,17.80
2006,08,22,15,10,17.70
2006,08,22,15,11,17.70
2006,08,22,15,12,17.80
2006,08,22,15,13,17.90
2006,08,22,15,14,17.90
2006,08,22,15,15,18.00
2006,08,22,15,16,18.20
2006,08,22,15,17,18.20
2006,08,22,15,18,18.20
2006,08,22,15,19,18.20
2006,08,22,15,20,18.20
2006,08,22,15,21,18.30
2006,08,22,15,22,18.30
2006,08,22,15,23,18.40
2006,08,22,15,24,18.40
2006,08,22,15,25,18.30
2006,08,22,15,26,18.20
2006,08,22,15,27,18.20
2006,08,22,15,28,18.30
2006,08,22,15,29,18.40
2006,08,22,15,30,18.40
2006,08,22,15,31,18.40
2006,08,22,15,32,18.30
2006,08,22,15,33,18.30
2006,08,22,15,34,18.40
2006,08,22,15,35,18.60
2006,08,22,15,36,18.60
2006,08,22,15,37,18.70
2006,08,22,15,38,18.70
2006,08,22,15,39,18.50
2006,08,22,15,40,18.30
2006,08,22,15,41,18.20
2006,08,22,15,42,18.20
2006,08,22,15,43,18.20
2006,08,22,15,44,18.30
2006,08,22,15,45,18.20
2006,08,22,15,46,18.10
2006,08,22,15,47,17.70
2006,08,22,15,48,17.70
2006,08,22,15,49,17.70
2006,08,22,15,50,17.50
2006,08,22,15,51,17.50
2006,08,22,15,52,17.40
2006,08,22,15,53,17.30
2006,08,22,15,54,17.20
2006,08,22,15,55,17.20
2006,08,22,15,56,17.20
2006,08,22,15,57,17.30
2006,08,22,15,58,17.40
2006,08,22,15,59,17.60
2006,08,22,16,00,17.70
2006,08,22,16,01,17.70
2006,08,22,16,02,17.70
2006,08,22,16,03,17.80
2006,08,22,16,04,17.60
2006,08,22,16,05,17.50
2006,08,22,16,06,17.50
2006,08,22,16,07,17.60
2006,08,22,16,08,17.60
2006,08,22,16,09,17.70
2006,08,22,16,10,17.70
2006,08,22,16,11,17.60
2006,08,22,16,12,17.50
2006,08,22,16,13,17.60
2006,08,22,16,14,17.60
2006,08,22,16,15,17.70
2006,08,22,16,16,17.70
2006,08,22,16,17,17.80
2006,08,22,16,18,17.80
2006,08,22,16,19,17.90
2006,08,22,16,20,17.90
2006,08,22,16,21,17.90
2006,08,22,16,22,17.90
2006,08,22,16,23,18.10
2006,08,22,16,24,18.00
2006,08,22,16,25,17.90
2006,08,22,16,26,18.00
2006,08,22,16,27,18.00
2006,08,22,16,28,17.90
2006,08,22,16,29,17.80
2006,08,22,16,30,17.70
2006,08,22,16,31,17.60
2006,08,22,16,32,17.50
2006,08,22,16,33,17.50
2006,08,22,16,34,17.60
2006,08,22,16,35,17.60
2006,08,22,16,36,17.80
2006,08,22,16,37,17.90
2006,08,22,16,38,18.00
2006,08,22,16,39,17.90
2006,08,22,16,40,17.90
2006,08,22,16,41,17.80
2006,08,22,16,42,17.90
2006,08,22,16,43,17.90
2006,08,22,16,44,17.90
2006,08,22,16,45,17.80
2006,08,22,16,46,17.70
2006,08,22,16,47,17.50
2006,08,22,16,48,17.40
2006,08,22,16,49,17.30
2006,08,22,16,50,17.30
2006,08,22,16,51,17.30
2006,08,22,16,52,17.30
2006,08,22,16,53,17.30
2006,08,22,16,54,17.30
2006,08,22,16,55,17.30
2006,08,22,16,56,17.30
2006,08,22,16,57,17.30
2006,08,22,16,58,17.30
2006,08,22,16,59,17.30
2006,08,22,17,00,17.30
2006,08,22,17,01,17.30
2006,08,22,17,02,17.30
2006,08,22,17,03,17.30
2006,08,22,17,04,17.30
2006,08,22,17,05,17.50
2006,08,22,17,06,17.60
2006,08,22,17,07,17.70
2006,08,22,17,08,17.90
2006,08,22,17,09,17.90
2006,08,22,17,10,17.80
2006,08,22,17,11,17.80
2006,08,22,17,12,17.90
2006,08,22,17,13,17.90
2006,08,22,17,14,17.90
2006,08,22,17,15,17.90
2006,08,22,17,16,17.90
2006,08,22,17,17,17.80
2006,08,22,17,18,17.80
2006,08,22,17,19,17.80